Regional Weather Roundup
Issued by NWS

Home | Current Version | Previous Version | Text Only | Print | Product List | Glossary Off
Versions: 1 2 3 4 5 6 7 8 9 10 11 12 13 14 15 16 17 18 19 20 21 22 23 24 25 26 27 28 29 30 31 32 33 34 35 36 37 38 39 40 41 42 43 44 45 46 47 48 49 50

000
ASUS43 KLMK 180510
RWRKY
KENTUCKY REGIONAL WEATHER ROUNDUP
NATIONAL WEATHER SERVICE LOUISVILLE KY
1200 AM EST MON DEC 18 2017

NOTE "FAIR" INDICATES FEW OR NO CLOUDS BELOW 12,000 FEET
WITH NO SIGNIFICANT WEATHER AND/OR OBSTRUCTIONS TO VISIBILITY.

KYZ001>023-026-027-061>063-070>075-180600-
WESTERN AND SOUTH CENTRAL KENTUCKY

CITY           SKY/WX    TMP DP  RH WIND       PRES   REMARKS
PADUCAH        CLOUDY    46  43  89 SW3       30.12S FOG
HENDERSON      CLOUDY    44  42  93 S6        30.13S
OWENSBORO      CLOUDY    43  42  97 S7        30.13S FOG
HOPKINSVILLE   CLOUDY    45  45 100 S5        30.12F
BOWLING GREEN  CLOUDY    44  44 100 CALM      30.15S FOG
GLASGOW        CLOUDY    43  43 100 CALM      30.15S
$$

KYZ024-025-028>034-038-045-046-053-180600-
NORTH CENTRAL KENTUCKY

CITY           SKY/WX    TMP DP  RH WIND       PRES   REMARKS
LOUISVILLE/SDF CLOUDY    44  40  85 S7        30.12F
LOUISVILLE/LOU CLOUDY    43  42  97 S6        30.13S
FORT KNOX      CLOUDY    42  42  99 S7        30.10F
$$

KYZ035>037-039>044-047>052-055>060-089>105-180600-
NORTHEAST KENTUCKY

CITY           SKY/WX    TMP DP  RH WIND       PRES   REMARKS
LEXINGTON      CLOUDY    41  38  89 S6        30.13S
COVINGTON      CLOUDY    41  39  93 SW8       30.11S
FRANKFORT      CLOUDY    42  38  85 S7        30.11F
$$

KYZ054-064>069-076>088-106>120-180600-
SOUTHEAST KENTUCKY

CITY           SKY/WX    TMP DP  RH WIND       PRES   REMARKS
JACKSON        CLOUDY    39  38  96 SW3       30.13F
LONDON         CLOUDY    42  40  92 S3        30.14F
SOMERSET       CLOUDY    41  41 100 S3        30.16S
MIDDLESBORO    CLOUDY    41  41 100 CALM      30.17F FOG
MONTICELLO     CLOUDY    42  42 100 W9        30.16F FOG
$$




USA.gov is the U.S. government's official web portal to all federal, state and local government web resources and services.